Location: Greenwich
(51.4790°N, 0.0090°E)
Time: 00:55:28
(UTC+01:00)

Transit 2A Rocket - Visible Passes

Search period start: 17 April 2024 00:00
Search period end: 27 April 2024 00:00
Orbit: 587 x 907 km, 66.7° (Epoch: 16 April)

Date Brightness Start Highest point End Pass type
(mag) Time Alt. Az. Time Alt. Az. Time Alt. Az.
17 Apr 5.3 21:43:19 10° NW 21:48:48 77° SW 21:52:40 22° SSE visible
17 Apr 7.2 23:27:09 10° WNW 23:30:36 17° WSW 23:32:30 14° SW visible
18 Apr 5.3 20:59:21 10° NW 21:04:50 73° NE 21:10:12 13° SE visible
18 Apr 6.7 22:42:24 10° WNW 22:47:00 26° WSW 22:50:02 17° SSW visible
19 Apr 6.2 21:58:06 10° NW 22:03:17 41° WSW 22:07:37 16° S visible
20 Apr 5.6 21:13:58 10° NW 21:19:27 63° WSW 21:25:15 10° SSE visible
20 Apr 7.6 22:58:32 10° WNW 23:01:04 13° WSW 23:03:39 10° SW visible
21 Apr 7.2 22:13:20 10° WNW 22:17:30 21° WSW 22:21:50 10° SSW visible
22 Apr 6.6 21:28:50 10° NW 21:33:49 33° WSW 21:39:03 10° S visible
23 Apr 6.0 20:44:37 10° NW 20:50:01 51° WSW 20:55:46 10° SSE visible
24 Apr 7.6 21:44:21 10° WNW 21:47:56 17° WSW 21:51:38 10° SW visible
25 Apr 7.1 20:59:36 10° NW 21:04:18 27° WSW 21:09:11 10° SSW visible
